Other Surface Observations
Issued by NWS

Home | Current Version | Previous Version | Text Only | Print | Product List | Glossary On
Versions: 1 2 3 4 5 6 7 8 9 10 11 12 13 14 15 16 17 18 19 20 21 22 23 24 25 26 27 28 29 30 31 32 33 34 35 36 37 38 39 40 41 42 43 44 45 46 47 48 49 50
000
SXUS52 KTAE 311818
OSOTAE
OSOTAE
North Florida/South Alabama/Southwest Georgia Weather Roundup
National Weather Service Tallahassee Florida
200 PM EDT FRI OCT 31 2014

Note: "fair" indicates few or no clouds below 12,000 feet with no
significant weather and/or obstructions to visibility.

!FLZ017-115-028-034-025-311900
...North Florida...

CITY           SKY/WX    TMP DP  RH WIND       PRES   REMARKS
TALLAHASSEE    SUNNY     73  37  27 NW13G20   29.90F
APALACHICOLA   SUNNY     74  42  31 VRB7      29.92F
PERRY          SUNNY     71  37  28 NW9G17    29.89F
CROSS CITY       N/A     73  43  33 NW13      29.87F
JACKSONVILLE   MOSUNNY   73  51  46 NW12      29.82F
$$

!FLZ112-006-005-002-011-311900
...Florida Panhandle...

CITY           SKY/WX    TMP DP  RH WIND       PRES   REMARKS
MARIANNA       SUNNY     71  39  31 NW12      29.91F
BONIFAY        FAIR      71  44  37 NW3       29.93F
PANAMA CITY NW FAIR      74  42  31 NW9       29.93F
TYNDALL AFB    SUNNY     71  45  39 NW9       29.93F
TYND DRONE APT NOT AVBL
DE FUNIAK SPR  FAIR      69  39  32 NW8       29.94F
EGLIN AFB      MOSUNNY   73  40  30 N8        29.93F
DESTIN         SUNNY     73  41  31 NW6       29.94F
HURLBURT       SUNNY     73  33  22 N8        29.93F
CRESTVIEW      SUNNY     72  43  35 NW7       29.96F
PENSACOLA      SUNNY     73  43  33 W12G17    29.96F
$$

!ALZ063-066-311900
...South Alabama...

CITY           SKY/WX    TMP DP  RH WIND       PRES   REMARKS
DOTHAN         SUNNY     71  40  32 NW8G17    29.95F
OZARK CAIRNS   SUNNY     71  41  33 N8        29.92F
FT RUCKER HELI SUNNY     71  40  32 N8        29.91F
RUCKER HELI 3  NOT AVBL
RUCKER HELI 2  FAIR      71  41  33 NW9       29.92F
FLORALA APT    SUNNY     71  40  32 VRB6      29.95F
ANDALUSIA      SUNNY     74  41  30 VRB5      29.93F
TROY           SUNNY     71  40  32 VRB5      29.92F
EUFALA         FAIR      71  41  33 W5        29.90F
MOBILE         MOSUNNY   72  46  39 W8        29.97F
$$

!GAZ120>161-311900
...Southwest and South Central Georgia...

CITY           SKY/WX    TMP DP  RH WIND       PRES   REMARKS
THOMASVILLE    FAIR      72  39  30 NW10      29.89F
BAINBRIDGE     SUNNY     73  43  33 NW6G16    29.91F
MOODY AFB      SUNNY     71  38  31 NW8       29.86F
VALDOSTA       SUNNY     72  37  28 VRB7      29.87F
MOULTRIE       SUNNY     70  41  35 NW9       29.89F
BLAKELY        SUNNY     70  36  28 NW6       29.92F
ALBANY         SUNNY     69  43  38 W9        29.91F
TIFTON         FAIR      69  38  31 NW10G16   29.87F
FITZGERALD     FAIR      72  31  22 NW5       29.89F
CORDELE        FAIR      71  40  32 W7        29.88F
AMERICUS       FAIR      68  39  34 NW6       29.90F
HOMERVILLE     FAIR      73  45  35 NW8       29.86F
$$

!GMZ750-755-770-775-311900
...Coastal and Buoy Obs...

STATION/POSITION TIME  TEMP    WIND        PRES    VSBY  WAVE
                       AIR SEA DIR/SP/G                  HT/PER
                 (UTC) (F)     (DEG/KT/KT) (MB)    (MI)  (FT/S)
KEATON BEACH     1800   67     280/ 11/ 14 1012.2F
CEDAR KEY        1800   69     310/  9/ 12 1011.9F
C TOWER          1800   65     320/ 13/ 14 1013.1F
APALACHICOLA BUO 1800   69 79  340/ 16/ 19 1013.0F         3/ 5
PANAMA CITY BUOY 1709   69 78  350/ 14/ 17 1014.3F         3/ 5
MOBILE BUOY      1749   70 78  330/ 14/ 17 1016.5F         2/ 5
ORANGE BCH AL BU 1800   68 77  300/ 10/ 12 1014.9F         1
$$



USA.gov is the U.S. government's official web portal to all federal, state and local government web resources and services.